Flag for U.S.A. Weather past 2 weeks in Sierra Vista, Arizona, U.S.A.

Now
67 °F

Passing clouds.


Feels Like: 67 °F
Forecast: 64 / 80 °F
Wind: 7 mph from West

Location: Fort Huachuca

Current Time: Sep 20, 2014 at 4:03:55 AM

Latest Report: Sep 20, 2014 at 2:56 AM


Visibility: 10 mi

Pressure: 29.89 "Hg

Humidity: 87%

Dew point: 63 °F

Location of Sierra VistaLocation

Historic Weather in Sierra Vista — Graph

°F

Sierra Vista temperature yesterday

Maximum temperature yesterday: 81 °F (at 1:55 PM)
Minimum temperature yesterday: 63 °F (at 4:55 AM)
Average temperature yesterday: 71 °F

Past Weeks' High & Low Weather Summary

 TemperatureHumidityPressure
High88 °F (Sep 12, 2:55 PM)100% (Sep 6, 7:56 PM)30.18 "Hg (Sep 6, 7:56 PM)
Low61 °F (Sep 10, 1:55 AM)23% (Sep 10, 2:55 PM)29.77 "Hg (Sep 18, 2:55 AM)
Average71 °F70%29.92 "Hg
* Reported Sep 5 2:55 AM — Sep 20 2:56 AM, Sierra Vista, Weather by CustomWeather, © 2014

Note: Actual official high and low records may vary slightly from our data, if they occured in-between our weather recording intervals... More about our weather records

Advertising

Sierra Vista weather history for previous 24 hours

 ConditionsComfort  
Time TempWeatherWind HumidityBarometerVisibility
2:56 AM
Sep 20
67 °FPassing clouds.7 mph87%29.89 "Hg10 mi
1:56 AM68 °FClear.7 mph84%29.90 "Hg10 mi
12:56 AM68 °FClear.6 mph84%29.90 "Hg10 mi
11:56 PM
Sep 19
68 °FClear.8 mph84%29.91 "Hg10 mi
10:55 PM70 °FPassing clouds.8 mph78%29.90 "Hg10 mi
9:55 PM70 °FPassing clouds.9 mph78%29.90 "Hg10 mi
8:55 PM70 °FPassing clouds.8 mph83%29.90 "Hg10 mi
7:55 PM72 °FPassing clouds.9 mph78%29.88 "Hg10 mi
6:55 PM72 °FPassing clouds.8 mph73%29.87 "Hg10 mi
5:55 PM75 °FScattered clouds.7 mph65%29.85 "Hg10 mi
4:55 PM75 °FBroken clouds.8 mph65%29.85 "Hg10 mi
3:55 PM75 °FPartly sunny.10 mph69%29.84 "Hg10 mi
2:55 PM81 °FScattered showers. Broken clouds.No wind51%29.83 "Hg10 mi
1:55 PM81 °FScattered showers. Broken clouds.7 mph54%29.85 "Hg10 mi
12:55 PM79 °FScattered showers. Broken clouds.3 mph58%29.86 "Hg10 mi
11:55 AM75 °FBroken clouds.6 mph65%29.88 "Hg10 mi
10:55 AM75 °FBroken clouds.3 mph69%29.89 "Hg10 mi
9:55 AM73 °FBroken clouds.No wind69%29.91 "Hg10 mi
8:55 AM72 °FPartly sunny.No wind73%29.91 "Hg10 mi
7:55 AM70 °FBroken clouds.3 mph78%29.90 "Hg10 mi
6:55 AM64 °FBroken clouds.3 mph94%29.90 "Hg10 mi
6:01 AM63 °FFog.No wind94%30.03 "Hg6 mi
5:04 AM63 °FFog.6 mph100%30.02 "Hg6 mi
4:55 AM63 °FFog.5 mph100%29.86 "Hg0 mi
Weather by CustomWeather, © 2014

See weather overviewHow to use our weather pages